Regional Weather Roundup
Issued by NWS

Home | Current Version | Previous Version | Graphics & Text | Print | Product List | Glossary On
Versions: 1 2 3 4 5 6 7 8 9 10 11 12 13 14 15 16 17 18 19 20 21 22 23 24 25 26 27 28 29 30 31 32 33 34 35 36 37 38 39 40 41 42 43 44 45 46 47 48 49 50
000
ASUS43 KDMX 231801
RWRIA

WEATHER ROUNDUP FOR IOWA
NATIONAL WEATHER SERVICE DES MOINES IA
100 PM CDT SUN JUL 23 2017

NOTE: "FAIR" INDICATES FEW OR NO CLOUDS BELOW 12,000 FEET WITH NO
SIGNIFICANT WEATHER AND/OR OBSTRUCTIONS TO VISIBILITY.

* - THESE STATIONS ARE NOT NWS STATIONS...THUS NOT UNDER NWS
QUALITY CONTROL.  THEY ALSO DO NOT REPORT WEATHER SUCH
AS PRECIPITATION OR FOG.

IAZ001>003-012>014-020>022-031>034-043>046-231900-
   NORTHWEST IOWA

CITY           SKY/WX    TMP DP  RH WIND       PRES   REMARKS
CARROLL *      SUNNY     81  64  57 NW13      29.96S HX  82
CHEROKEE *     SUNNY     79  57  47 NW15      29.99S HX  80
DENISON *      SUNNY     82  63  51 N12G17    29.99F HX  83
ORANGE CITY *  SUNNY     79  63  57 N9G20     30.00F HX  80
SHELDON *      SUNNY     77  59  53 NW10G17   29.99S
SIOUX CITY     SUNNY     85  58  39 NW18      29.98S HX  84
6HR MIN TEMP:  68; 6HR MAX TEMP:  85;

SPENCER        SUNNY     80  58  46 N17       29.99S HX  80
6HR MIN TEMP:  64; 6HR MAX TEMP:  81;

STORM LAKE *     N/A     79  61  53 N15       29.99F HX  80
$$

IAZ055>058-069>071-079>083-090>094-231900-
   SOUTHWEST IOWA

CITY           SKY/WX    TMP DP  RH WIND       PRES   REMARKS
ATLANTIC *     SUNNY     86  64  48 NW10      29.95S HX  87
AUDUBON *      SUNNY     84  59  42 N13G18    29.98S HX  84
CLARINDA *     SUNNY     84  75  74 NW8       29.96F HX  92
COUNCIL BLFS * SUNNY     86  70  58 N8G14     29.96F HX  90
CRESTON *      SUNNY     88  64  45 NW13      29.95F HX  89
HARLAN  *      SUNNY     84  63  48 NW13      30.00S HX  85
LAMONI         SUNNY     89  71  55 NW8       29.92F HX  95
6HR MIN TEMP:  73; 6HR MAX TEMP:  90;

RED OAK *      SUNNY     86  72  62 NW9       29.95S HX  92
SHENANDOAH *   MOSUNNY   84  75  74 VRB7      29.95F HX  92
$$

IAZ047>049-059>061-072>074-084-231900-
   CENTRAL IOWA

CITY           SKY/WX    TMP DP  RH WIND       PRES   REMARKS
AMES           SUNNY     82  67  60 NW15      29.93R HX  84
6HR MIN TEMP:  71; 6HR MAX TEMP:  82;

ANKENY *       SUNNY     86  61  42 NW12G23   29.93R HX  86
BOONE *        SUNNY     82  64  54 N16       29.93S HX  84
CHARITON *     SUNNY     90  64  43 NW16      29.91F HX  91
DES MOINES     MOSUNNY   88  58  36 N12       29.91S HX  87
6HR MIN TEMP:  74; 6HR MAX TEMP:  89;

GRINNELL*      SUNNY     81  66  60 NW12G18   29.92S HX  83
KNOXVILLE *    SUNNY     86  61  42 NW14G20   29.90S HX  86
MARSHALLTOWN   SUNNY     83  63  50 N15       29.91R HX  84
6HR MIN TEMP:  70; 6HR MAX TEMP:  84;

NEWTON *       SUNNY     82  61  47 NW20      29.91S HX  83
PELLA *        SUNNY     87  61  41 NW10G16   29.92R HX  87
$$

IAZ004>006-015-016-023>025-035-036-231900-
   NORTH CENTRAL IOWA

CITY           SKY/WX    TMP DP  RH WIND       PRES   REMARKS
ALGONA *       SUNNY     77  59  53 N14G21    29.96F
CLARION *      MOSUNNY   77  64  65 NW14      29.95S
ESTHERVILLE    MOSUNNY   75  62  64 NW16G25   29.98S
6HR MIN TEMP:  62; 6HR MAX TEMP:  76;

FORT DODGE *   SUNNY     79  63  57 NW10G18   29.96S HX  80
MASON CITY     MOSUNNY   77  60  55 NW18      29.95S
6HR MIN TEMP:  68; 6HR MAX TEMP:  78;

FOREST CITY *    N/A     77  59  53 NW17G25   29.95S
WEBSTER CITY * MOSUNNY   79  64  61 NW10G18   29.93S HX  81
IOWA FALLS *     N/A     79  65  61 NW13      29.94S HX  81
$$

IAZ007>011-017>019-026>030-037>042-050>054-066-231900-
   NORTHEAST IOWA

CITY           SKY/WX    TMP DP  RH WIND       PRES   REMARKS
CEDAR RAPIDS   SUNNY     84  71  65 NW14G23   29.86R HX  89
6HR MIN TEMP:  71; 6HR MAX TEMP:  85;

CHARLES CITY * SUNNY     77  61  57 NW14G22   29.92S
DECORAH *      MOSUNNY   79  61  53 NW13G20   29.88R HX  80
DUBUQUE        MOSUNNY   83  69  62 W17G25    29.84S HX  86
6HR MIN TEMP:  67; 6HR MAX TEMP:  84;

MONTICELLO *   SUNNY     82  70  65 W17       29.84R HX  86
OELWEIN *        N/A    N/A N/A N/A MISG        N/A
WATERLOO       SUNNY     80  63  55 NW17G24   29.88R HX  81
6HR MIN TEMP:  69; 6HR MAX TEMP:  82;

$$

IAZ064-065-067-068-078-231900-
   EAST CENTRAL IOWA

CITY           SKY/WX    TMP DP  RH WIND       PRES   REMARKS
DAVENPORT      SUNNY     86  70  58 W15       29.86F HX  90
6HR MIN TEMP:  72; 6HR MAX TEMP:  86;

IOWA CITY      SUNNY     88  63  43 NW15G24   29.87S HX  89
6HR MIN TEMP:  74; 6HR MAX TEMP:  89;

MUSCATINE *    SUNNY     88  70  55 W14G22    29.86S HX  92
QUAD CITIES    MOSUNNY   88  73  61 W10       29.84S HX  95
6HR MIN TEMP:  74; 6HR MAX TEMP:  89;

$$

IAZ062-063-075>077-085>089-095>099-231900-
   SOUTHEAST IOWA

CITY           SKY/WX    TMP DP  RH WIND       PRES   REMARKS
BURLINGTON     SUNNY     89  73  59 NW9       29.86F HX  97
6HR MIN TEMP:  75; 6HR MAX TEMP:  89;

FAIRFIELD *    SUNNY     88  70  55 W14       29.88S HX  92
FORT MADISON * SUNNY     90  72  55 W10       29.88S HX  96
KEOKUK *       MOSUNNY   91  70  49 W9        29.86F HX  97
OSKALOOSA *      N/A     87  66  48 NW13G20   29.90S HX  89
OTTUMWA        SUNNY     93  61  34 NW17G24   29.89S HX  93
6HR MIN TEMP:  75; 6HR MAX TEMP:  93;

WASHINGTON *   MOSUNNY   86  72  62 W13G20    29.89S HX  92
$$

ABBREVIATIONS USED IN REMARKS
   TC - TEMPERATURES IN CELSIUS
  WCI - WIND CHILL INDEX
   HX - HEAT INDEX
  VSB - VISIBILITY
$$





USA.gov is the U.S. government's official web portal to all federal, state and local government web resources and services.